Terminal Aerodrome Forecast
Issued by NWS Northern Indiana

Home | Current Version | Previous Version | Graphics & Text | Print | Product List | Glossary On
Versions: 1 2 3 4 5 6 7 8 9 10 11 12 13 14 15 16 17 18 19 20
000
FTUS43 KIWX 260518 AAC
TAFFWA
TAF AMD
KFWA 260518Z 2605/2624 VRB03KT 6SM BR VCTS BKN025CB
      TEMPO 2605/2606 5SM -TSRA OVC025CB
     FM260600 33004KT P6SM SCT050
     FM261000 VRB03KT 4SM BR SCT250
     FM261400 08007KT P6SM BKN250=

USA.gov is the U.S. government's official web portal to all federal, state and local government web resources and services.